Starlink 5490

operational
NORAD ID: 57254 Int'l Des: 2023-094 Owner: SPXS Country: US Constellation: starlink
LEOCIRCULAR

关于 Starlink 5490

正在加载描述...

实时位置

正在加载3D地球...

即将过境

高度历史

Altitude vs Time

uPlot chart will show altitude changes over time

两行轨道根数

1 57254U 23094AN 26071.25001157 .00100808 00000-0 64190-2 0 9997
2 57254 43.0001 3.2711 0001180 299.6766 171.8328 15.07688356 5635
Epoch: Mar 12, 2026 • Age: 17 hours

当前状态

高度 543.8 km
速度 7.59 km/s
星下点 -4.21°S, 112.9°E
发射日期 Jul 7, 2023
运行时间 2.6 years
类型 internet

技术详情

分类 Payload
质量 305.00 kg
干质量 290.00 kg
总质量 305.00 kg
长度 0.20 m
直径 2.80 m
跨度 9.00 m
形状 Box + pan
制造商 SPXS
平台类型 Starlink
阶段状态 In Orbit
所有者/国家 SPXS/US

大型星座

Loading constellations...